Hourly Weather Rupniow

Today, 11 April, Sunday

Time Temperature Precipitation Wind Pressure Humidity
00:00 +6°C° 0 mm 2 mps 724 mmHg 78%
01:00 +5°C° 0 mm 2 mps 724 mmHg 79%
02:00 +5°C° 0 mm 2 mps 724 mmHg 80%
03:00 +5°C° 0 mm 2 mps 724 mmHg 82%
04:00 +4°C° 0 mm 2 mps 724 mmHg 83%
05:00 +5°C° 0 mm 2 mps 724 mmHg 79%
06:00 +7°C° 0 mm 2 mps 724 mmHg 75%
07:00 +8°C° 0 mm 2 mps 724 mmHg 71%
08:00 +10°C° 0 mm 3 mps 724 mmHg 63%
09:00 +12°C° 0 mm 3 mps 724 mmHg 55%
10:00 +14°C° 0 mm 4 mps 724 mmHg 47%
11:00 +15°C° 0 mm 4 mps 724 mmHg 45%
12:00 +17°C° 0 mm 4 mps 724 mmHg 44%
13:00 +17°C° 0 mm 4 mps 724 mmHg 42%
14:00 +15°C° 0 mm 4 mps 724 mmHg 48%
15:00 +14°C° 0 mm 4 mps 724 mmHg 53%
16:00 +13°C° 0 mm 4 mps 723 mmHg 59%
17:00 +12°C° 0.1 mm 4 mps 724 mmHg 64%
18:00 +11°C° 0.1 mm 3 mps 724 mmHg 69%
19:00 +10°C° 0.1 mm 3 mps 724 mmHg 75%
20:00 +10°C° 0 mm 3 mps 724 mmHg 76%
21:00 +9°C° 0 mm 3 mps 724 mmHg 78%
22:00 +9°C° 0 mm 3 mps 724 mmHg 80%
23:00 +9°C° 0 mm 3 mps 724 mmHg 80%

Tomorrow, 12 April, Monday

Time Temperature Precipitation Wind Pressure Humidity
00:00 +9°C° 0 mm 3 mps 724 mmHg 81%
01:00 +9°C° 0 mm 3 mps 723 mmHg 82%
02:00 +8°C° 0 mm 2 mps 723 mmHg 83%
03:00 +8°C° 0 mm 2 mps 723 mmHg 84%
04:00 +8°C° 0 mm 2 mps 723 mmHg 86%
05:00 +8°C° 0 mm 2 mps 723 mmHg 83%
06:00 +9°C° 0 mm 2 mps 723 mmHg 81%
07:00 +9°C° 0 mm 2 mps 723 mmHg 78%
08:00 +10°C° 0 mm 2 mps 723 mmHg 76%
09:00 +10°C° 0 mm 2 mps 723 mmHg 73%
10:00 +12°C° 0 mm 2 mps 723 mmHg 71%
11:00 +12°C° 0 mm 2 mps 723 mmHg 70%
12:00 +13°C° 0 mm 2 mps 723 mmHg 68%
13:00 +13°C° 0 mm 2 mps 724 mmHg 67%
14:00 +13°C° 0 mm 1 mps 724 mmHg 69%
15:00 +13°C° 0 mm 1 mps 724 mmHg 70%
16:00 +13°C° 0 mm 1 mps 724 mmHg 72%
17:00 +12°C° 0 mm 1 mps 724 mmHg 77%
18:00 +11°C° 0 mm 1 mps 724 mmHg 83%
19:00 +10°C° 0 mm 1 mps 725 mmHg 88%
20:00 +8°C° 0.1 mm 2 mps 725 mmHg 89%
21:00 +8°C° 0.1 mm 2 mps 725 mmHg 91%
22:00 +7°C° 0.1 mm 2 mps 725 mmHg 92%
23:00 +6°C° 1.4 mm 2 mps 725 mmHg 93%

Day after tomorrow, 13 April, Tuesday

Time Temperature Precipitation Wind Pressure Humidity
00:00 +6°C° 1.4 mm 2 mps 725 mmHg 95%
01:00 +5°C° 1.4 mm 2 mps 725 mmHg 96%
02:00 +5°C° 1 mm 2 mps 725 mmHg 96%
03:00 +4°C° 1 mm 2 mps 725 mmHg 96%
04:00 +4°C° 1 mm 2 mps 725 mmHg 96%
05:00 +3°C° 0.5 mm 2 mps 725 mmHg 97%
06:00 +2°C° 0.5 mm 3 mps 726 mmHg 97%
07:00 +1°C° 0.5 mm 3 mps 726 mmHg 98%
08:00 +2°C° 1.1 mm 2 mps 726 mmHg 98%
09:00 +1°C° 1.1 mm 2 mps 727 mmHg 98%
10:00 +1°C° 1.1 mm 2 mps 727 mmHg 99%
11:00 +1°C° 1.4 mm 2 mps 727 mmHg 99%
12:00 +1°C° 1.4 mm 2 mps 727 mmHg 99%
13:00 +1°C° 1.4 mm 2 mps 727 mmHg 99%
14:00 +1°C° 1.7 mm 2 mps 727 mmHg 99%
15:00 +1°C° 1.7 mm 2 mps 726 mmHg 99%
16:00 -1°C° 1.7 mm 2 mps 726 mmHg 99%
17:00 -1°C° 1.7 mm 2 mps 726 mmHg 99%
18:00 -1°C° 1.7 mm 2 mps 726 mmHg 99%
19:00 -1°C° 1.7 mm 2 mps 726 mmHg 99%
20:00 -1°C° 1.5 mm 2 mps 726 mmHg 99%
21:00 -1°C° 1.5 mm 2 mps 726 mmHg 99%
22:00 -1°C° 1.5 mm 2 mps 726 mmHg 99%
23:00 -1°C° 1 mm 2 mps 726 mmHg 99%

14 April, Wednesday

Time Temperature Precipitation Wind Pressure Humidity
00:00 -1°C° 1 mm 2 mps 726 mmHg 99%
01:00 -1°C° 1 mm 3 mps 725 mmHg 99%
02:00 -1°C° 0.7 mm 3 mps 725 mmHg 99%
03:00 -2°C° 0.7 mm 3 mps 725 mmHg 98%
04:00 -2°C° 0.7 mm 3 mps 725 mmHg 98%
05:00 -2°C° 0.7 mm 3 mps 725 mmHg 98%
06:00 -2°C° 0.7 mm 3 mps 725 mmHg 98%
07:00 -1°C° 0.7 mm 3 mps 725 mmHg 98%
08:00 -2°C° 0.7 mm 4 mps 725 mmHg 98%
09:00 -2°C° 0.7 mm 4 mps 725 mmHg 98%
10:00 -2°C° 0.7 mm 4 mps 725 mmHg 98%
11:00 -2°C° 0.8 mm 4 mps 725 mmHg 98%
12:00 -2°C° 0.8 mm 4 mps 725 mmHg 98%
13:00 -2°C° 0.8 mm 4 mps 725 mmHg 98%
14:00 -2°C° 1.2 mm 4 mps 724 mmHg 98%
15:00 -2°C° 1.2 mm 4 mps 724 mmHg 98%
16:00 -2°C° 1.2 mm 4 mps 724 mmHg 98%
17:00 -2°C° 1.6 mm 4 mps 724 mmHg 98%
18:00 -2°C° 1.6 mm 4 mps 724 mmHg 99%
19:00 -1°C° 1.6 mm 3 mps 724 mmHg 99%
20:00 -1°C° 1.8 mm 3 mps 723 mmHg 99%
21:00 -1°C° 1.8 mm 3 mps 723 mmHg 99%
22:00 -1°C° 1.8 mm 3 mps 723 mmHg 99%
23:00 -1°C° 1.3 mm 3 mps 723 mmHg 99%

15 April, Thursday

Time Temperature Precipitation Wind Pressure Humidity
00:00 -2°C° 1.3 mm 3 mps 723 mmHg 99%
01:00 -2°C° 1.3 mm 3 mps 722 mmHg 99%
02:00 -2°C° 0.9 mm 3 mps 722 mmHg 99%
03:00 -2°C° 0.9 mm 3 mps 722 mmHg 99%
04:00 -2°C° 0.9 mm 2 mps 722 mmHg 99%
05:00 -2°C° 0.7 mm 2 mps 722 mmHg 99%
06:00 -1°C° 0.7 mm 2 mps 723 mmHg 99%
07:00 -1°C° 0.7 mm 2 mps 723 mmHg 99%
08:00 -1°C° 0.5 mm 2 mps 723 mmHg 99%
09:00 -1°C° 0.5 mm 2 mps 723 mmHg 99%
10:00 -1°C° 0.5 mm 2 mps 723 mmHg 99%
11:00 -1°C° 0.6 mm 2 mps 724 mmHg 99%
12:00 -1°C° 0.6 mm 2 mps 724 mmHg 99%
13:00 -1°C° 0.6 mm 2 mps 724 mmHg 99%
14:00 -1°C° 0.7 mm 2 mps 724 mmHg 99%
15:00 -1°C° 0.7 mm 2 mps 724 mmHg 99%
16:00 -1°C° 0.7 mm 2 mps 724 mmHg 99%
17:00 -1°C° 0.4 mm 2 mps 725 mmHg 99%
18:00 -1°C° 0.4 mm 2 mps 725 mmHg 99%
19:00 -1°C° 0.4 mm 2 mps 725 mmHg 99%
20:00 -1°C° 0.4 mm 2 mps 725 mmHg 99%
21:00 -1°C° 0.4 mm 2 mps 725 mmHg 99%
22:00 -1°C° 0.4 mm 2 mps 726 mmHg 99%
23:00 -1°C° 0.1 mm 2 mps 726 mmHg 99%

16 April, Friday

Time Temperature Precipitation Wind Pressure Humidity
00:00 -1°C° 0.1 mm 2 mps 726 mmHg 99%
01:00 -1°C° 0.1 mm 2 mps 726 mmHg 99%
02:00 -1°C° 0.2 mm 2 mps 726 mmHg 99%
03:00 -1°C° 0.2 mm 2 mps 726 mmHg 99%
04:00 -1°C° 0.2 mm 2 mps 726 mmHg 99%
05:00 -1°C° 0.1 mm 2 mps 727 mmHg 99%
06:00 -1°C° 0.1 mm 2 mps 727 mmHg 99%
07:00 -1°C° 0.1 mm 2 mps 727 mmHg 99%
08:00 -1°C° 0.2 mm 2 mps 728 mmHg 99%
09:00 -1°C° 0.2 mm 2 mps 728 mmHg 99%
10:00 -1°C° 0.2 mm 2 mps 728 mmHg 99%
11:00 +1°C° 0.1 mm 1 mps 728 mmHg 99%
12:00 +1°C° 0.1 mm 1 mps 729 mmHg 99%
13:00 +2°C° 0.1 mm 1 mps 729 mmHg 99%
14:00 +1°C° 0 mm 1 mps 729 mmHg 99%
15:00 +1°C° 0 mm 1 mps 729 mmHg 99%
16:00 +1°C° 0 mm 1 mps 730 mmHg 99%
17:00 +1°C° 0.1 mm 1 mps 730 mmHg 99%
18:00 +1°C° 0.1 mm 1 mps 730 mmHg 99%
19:00 +1°C° 0.1 mm 1 mps 730 mmHg 99%
20:00 +1°C° 0.2 mm 1 mps 731 mmHg 99%
21:00 +1°C° 0.2 mm 1 mps 731 mmHg 99%
22:00 0°C° 0.2 mm 0 mps 731 mmHg 99%
23:00 0°C° 0 mm 0 mps 731 mmHg 99%
Show more